| time (UTC) | temp F | wind direction | speed knots | gust knots | rain 1hr in | rain 24hr in | rain mn in | humidity % | barometer mb |
| 20260505034508 | 55 | 196 | 2.6 | 5.2 | 0.00 | 0.00 | 0.00 | 87 | 1014.4 |
| 20260505031505 | 55 | 203 | 1.7 | 6.1 | 0.00 | 0.00 | 0.00 | 85 | 1014.2 |
| 20260505030008 | 55 | 208 | 3.5 | 7.0 | 0.00 | 0.00 | 0.00 | 85 | 1014.3 |
| 20260505024507 | 56 | 183 | 4.3 | 8.7 | 0.00 | 0.00 | 0.00 | 85 | 1014.2 |
| 20260505023005 | 56 | 224 | 5.2 | 8.7 | 0.00 | 0.00 | 0.00 | 84 | 1014.1 |
| 20260505020008 | 57 | 240 | 4.3 | 8.7 | 0.00 | 0.00 | 0.00 | 83 | 1014.1 |
| 20260505014510 | 57 | 254 | 7.0 | 9.6 | 0.00 | 0.00 | 0.00 | 83 | 1014.2 |
| 20260505011505 | 58 | 278 | 5.2 | 10.4 | 0.00 | 0.00 | 0.00 | 81 | 1014.3 |
| 20260505010008 | 58 | 234 | 5.2 | 8.7 | 0.00 | 0.00 | 0.00 | 81 | 1014.2 |
| 20260505004503 | 58 | 264 | 4.3 | 10.4 | 0.00 | 0.00 | 0.00 | 80 | 1014.3 |
| 20260505003005 | 59 | 222 | 7.8 | 10.4 | 0.00 | 0.00 | 0.00 | 80 | 1014.3 |
| 20260505000006 | 59 | 250 | 4.3 | 10.4 | 0.00 | 0.00 | 0.00 | 80 | 1014.3 |
| 20260504234503 | 60 | 219 | 10.4 | 14.8 | 0.00 | 0.00 | 0.00 | 79 | 1014.3 |
| 20260504233006 | 60 | 217 | 9.6 | 13.0 | 0.00 | 0.00 | 0.00 | 79 | 1014.4 |
| 20260504231506 | 60 | 232 | 9.6 | 13.0 | 0.00 | 0.00 | 0.00 | 79 | 1014.3 |
| 20260504224503 | 60 | 263 | 5.2 | 9.6 | 0.00 | 0.00 | 0.00 | 78 | 1014.4 |
| 20260504221505 | 60 | 272 | 6.1 | 12.2 | 0.00 | 0.00 | 0.00 | 78 | 1014.4 |
| 20260504220008 | 61 | 222 | 7.0 | 12.2 | 0.00 | 0.00 | 0.00 | 79 | 1014.4 |
| 20260504214506 | 61 | 218 | 7.0 | 12.2 | 0.00 | 0.00 | 0.00 | 78 | 1014.5 |
| 20260504213004 | 61 | 268 | 6.1 | 12.2 | 0.00 | 0.00 | 0.00 | 76 | 1014.5 |
| 20260504211503 | 61 | 235 | 5.2 | 9.6 | 0.00 | 0.00 | 0.00 | 79 | 1014.5 |
| 20260504210009 | 61 | 225 | 5.2 | 9.6 | 0.00 | 0.00 | 0.00 | 78 | 1014.7 |
| 20260504204503 | 60 | 210 | 5.2 | 7.8 | 0.00 | 0.00 | 0.00 | 79 | 1014.9 |
| 20260504203003 | 60 | 145 | 2.6 | 7.8 | 0.00 | 0.00 | 0.00 | 80 | 1015.0 |
| 20260504201507 | 60 | 226 | 5.2 | 7.8 | 0.00 | 0.00 | 0.00 | 80 | 1015.2 |
| 20260504200006 | 59 | 188 | 3.5 | 7.8 | 0.00 | 0.00 | 0.00 | 81 | 1015.0 |
| 20260504194507 | 59 | 222 | 6.1 | 11.3 | 0.00 | 0.00 | 0.00 | 82 | 1015.1 |
| 20260504193004 | 59 | 209 | 4.3 | 6.1 | 0.00 | 0.00 | 0.00 | 81 | 1015.0 |
| 20260504191503 | 59 | 220 | 2.6 | 6.1 | 0.00 | 0.00 | 0.00 | 81 | 1015.1 |
| 20260504190006 | 58 | 153 | 1.7 | 7.0 | 0.00 | 0.00 | 0.00 | 82 | 1015.0 |
| 20260504184503 | 58 | 228 | 2.6 | 5.2 | 0.00 | 0.00 | 0.00 | 82 | 1015.0 |
| 20260504183003 | 58 | 212 | 2.6 | 5.2 | 0.00 | 0.00 | 0.00 | 82 | 1015.0 |
| 20260504181504 | 58 | 199 | 3.5 | 6.1 | 0.00 | 0.00 | 0.00 | 82 | 1014.8 |
| 20260504180005 | 58 | 185 | 2.6 | 6.1 | 0.00 | 0.00 | 0.00 | 83 | 1014.7 |
| 20260504174503 | 57 | 215 | 0.9 | 4.3 | 0.00 | 0.00 | 0.00 | 84 | 1014.6 |
| 20260504173003 | 57 | 215 | 3.5 | 6.1 | 0.00 | 0.00 | 0.00 | 84 | 1014.6 |
| 20260504171502 | 57 | 212 | 4.3 | 6.1 | 0.00 | 0.00 | 0.00 | 84 | 1014.7 |
| 20260504081504 | 55 | 354 | 2.6 | 3.5 | 0.00 | 0.00 | 0.00 | 88 | 1012.8 |
| 20260504050007 | 54 | 186 | 0.9 | 5.2 | 0.00 | 0.00 | 0.00 | 87 | 1011.2 |
| 20260504044505 | 55 | 204 | 4.3 | 8.7 | 0.00 | 0.00 | 0.00 | 86 | 1011.0 |
| 20260504043005 | 56 | 215 | 5.2 | 7.8 | 0.00 | 0.00 | 0.00 | 84 | 1010.8 |
| 20260504041505 | 58 | 227 | 6.1 | 9.6 | 0.00 | 0.00 | 0.00 | 82 | 1010.5 |
| 20260504040008 | 58 | 195 | 5.2 | 8.7 | 0.00 | 0.00 | 0.00 | 81 | 1010.2 |